CAPE
1308 1451 1636 2114 2121 2108 2033 2068 2127 2085 2089 2204 2306 2270 2258 2223 2173 2008 2065 2064 2017 1955 1932 1985 2042 2009 2014 1936 1900 1952 1886 1857 1862 1924 1919 1723 1601 1545 1774 1839 1676 1438 1715 1754 1629 1851 1850 1860 1792 1793 1716 1694 1696 1682 1586 1529 1481 1627 1647 1711 1650 1671 1701 1672 1773 1928 1945 1880 1772 1603 1387 1443 1763 1664 1607 1681 1504 1282 1305 1266 1099 1031 862 849 551
1183 1555 1689 1936 2105 2145 2043 2096 2113 2061 2080 2197 2240 2235 2244 2180 2081 2101 2118 2125 2072 2021 2048 2050 2068 2048 1963 1926 1888 1896 1864 1815 1770 1704 1707 1717 1653 1597 1624 1771 1704 1677 1532 1760 1807 1789 1814 1644 1656 1646 1605 1646 1672 1568 1438 1569 1446 1666 1746 1730 1713 1622 1647 1724 1946 1975 1948 1833 1738 1756 1780 1770 1746 1673 1765 1648 1432 1253 1096 1130 1134 918 947 875 919
1414 1651 1698 1805 2021 2170 2157 2133 2056 2035 2101 2144 2184 2194 2211 2110 2106 2166 2213 2121 2147 2146 2123 2034 2080 2012 1946 1968 1967 1876 1836 1813 1738 1645 1638 1568 1570 1575 1605 1762 1799 1702 1880 1806 1658 1594 1635 1524 1418 1457 1498 1601 1659 1751 1722 1745 1750 1731 1728 1721 1769 1753 1733 1772 1964 1940 1838 1845 1742 1624 1596 1705 1681 1594 1587 1411 1220 1102 1019 914 783 808 691 870 833
1443 1625 1702 1742 1970 2237 2210 2098 2009 2060 2063 2145 2184 2181 2190 2176 2176 2247 2149 2120 2123 2161 2112 2052 2082 2086 2075 2057 2003 1938 1796 1764 1700 1659 1626 1594 1546 1500 1493 1746 1777 1801 1745 1620 1474 1271 1218 1109 1084 1084 1018 1296 1372 1441 1338 1384 1477 1506 1553 1644 1634 1688 1724 1738 1820 1805 1575 1474 1291 1162 1241 1031 1110 1314 1355 1291 1209 1164 1033 779 688 528 403 395 393
1470 1568 1634 1671 2000 2174 2148 2075 2020 1976 1993 2123 2205 2215 2223 2238 2259 2153 2082 2151 2217 2161 2125 2081 2039 2074 2057 2024 1996 1952 1808 1742 1682 1621 1539 1546 1482 1414 1495 1760 1799 1764 1658 1551 1427 1116 924 922 1048 1243 1338 1243 1142 1369 1259 1206 1267 1251 1350 1212 1440 1563 1623 1570 1649 1711 1247 1174 1152 796 727 769 893 1141 1180 1111 1039 970 946 929 791 705 473 359 347
1401 1462 1515 1647 1937 2085 2180 2102 2017 1908 1957 2178 2222 2258 2245 2225 2154 2166 2182 2165 2197 2173 2101 2102 2041 2012 2007 1972 1847 1781 1733 1993 2253 2023 1569 1590 1664 1324 1168 1698 1872 1840 1760 1583 1331 1125 908 886 1176 1548 1682 1578 1443 1293 1244 1408 1089 1299 1324 1122 1178 1190 1299 1361 1549 1497 1475 1498 1452 1090 862 613 781 961 855 900 885 852 844 873 918 720 540 535 316
1685 1263 1411 1623 1832 2047 2190 2122 2002 1936 1998 2219 2197 2218 2221 2169 2118 2165 2159 2201 2193 2170 2069 2141 1988 1874 1773 1635 1549 1607 1655 1820 1876 1851 1945 1875 1608 1277 944 1430 1653 1734 1711 1684 1294 1106 879 887 1237 1570 1713 1729 1602 1524 1378 1378 1524 1347 1282 1312 1178 1245 1200 1334 1081 1151 1310 1572 1656 1524 1274 523 669 823 792 730 806 746 750 847 825 522 446 438 405
1676 1257 1382 1562 1774 1951 2131 2120 2044 1954 2023 2194 2186 2139 2141 1989 2113 2129 2137 2181 2129 2068 2079 2024 1866 1780 1618 1478 1468 1489 1586 1557 1514 1553 1720 1748 1528 1404 1214 1396 1537 1542 1668 1572 1515 1273 1009 1042 1287 1465 1622 1686 1768 1338 1083 1264 1181 1420 1393 1369 1468 1396 1423 1544 1552 1538 1534 1344 1122 1243 1087 641 764 867 980 895 870 779 659 757 811 622 469 400 378
1586 1242 1323 1482 1654 2006 2160 2128 2067 1983 1989 2084 2207 2052 2046 2014 2068 2147 2208 2213 2131 2094 2071 1849 1711 1576 1442 1348 1376 1324 1220 1142 1179 1209 1252 1437 1515 1476 1521 1449 1497 1640 1580 1648 1427 1106 883 939 1329 1488 1539 1734 1762 1531 1310 1416 1490 1498 1379 1530 1469 1578 1419 1400 1676 1430 930 497 404 1044 859 747 807 871 996 888 802 694 688 890 805 616 588 444 352
1516 1188 1207 1293 1530 1869 2027 2183 2040 1948 1855 1997 2047 1999 2047 2074 2170 2214 2195 2114 2148 2035 1760 1628 1567 1520 1436 1241 1161 1058 902 861 732 798 932 1050 1280 1479 1364 1250 1426 1605 1525 1770 1473 1186 872 872 1271 1420 1456 1498 1654 1622 1431 1490 1642 1527 1644 1627 1625 1618 1586 1563 1650 883 614 210 456 937 965 660 737 761 912 935 884 513 412 579 857 497 552 457 388
1348 1304 1123 1249 1629 2017 2120 2088 2038 1898 1816 1886 2040 2053 2096 2130 2212 2272 2199 2207 2069 1784 1685 1726 1533 1390 1247 1060 843 734 636 669 624 533 640 745 969 1210 1410 1379 1213 1476 1610 1733 1483 1265 1026 851 1158 1269 1480 1431 1455 1376 1513 1528 1510 1514 1730 1700 1619 1710 1784 1800 1430 538 384 149 808 984 847 921 752 807 979 952 872 771 699 631 632 584 557 555 470
1371 1434 1067 1273 1719 2143 2079 1982 1962 1906 1928 1916 2012 2083 2164 2203 2218 2260 2237 2087 1956 1886 1612 1491 1291 1078 908 868 808 859 895 995 1093 877 639 699 848 1090 1192 1335 1340 1578 1623 1536 1386 1250 1007 806 845 1278 1315 1523 1469 1414 1424 1349 1634 1581 1660 1723 1748 1818 1830 1851 962 384 345 354 541 646 911 909 731 828 1043 921 782 785 675 607 526 535 485 392 398
1564 1532 1046 1276 1603 2018 1948 1960 1876 1813 1883 1967 2065 2120 2246 2291 2280 2270 2234 2088 1989 1974 1577 1224 1065 983 947 937 946 895 802 730 802 797 810 687 679 736 943 1116 1221 1231 1381 1305 1221 1105 981 884 1004 1081 1090 1179 1364 1377 1600 1461 1448 1704 1750 1677 1808 1885 1798 1584 814 469 346 626 904 834 699 542 736 1125 1062 912 757 594 559 505 483 476 396 324 265
1710 1580 1087 1300 1475 1813 1915 1918 1830 1899 1980 2107 2179 2276 2274 2329 2359 2253 2142 2074 2072 1722 1396 1212 1111 1079 1040 988 891 714 596 546 558 581 674 616 533 496 475 739 1082 1087 990 964 1065 1042 1029 1134 993 907 941 925 1147 1267 1285 1491 1615 1622 1634 1775 1756 1762 1817 1321 1088 649 407 780 733 471 349 412 545 1032 876 737 741 735 697 571 464 406 293 260 250
1761 1702 1034 1269 1483 1583 1798 1883 1954 2054 2159 2250 2297 2362 2414 2390 2327 2232 2189 2110 1911 1678 1651 1292 1205 1156 995 826 693 625 586 531 479 381 342 320 333 335 376 580 896 1080 953 676 718 996 989 953 776 747 763 794 942 914 1312 1341 1507 1643 1774 1760 1870 1837 1880 1428 1023 704 410 520 477 521 337 486 1047 1130 840 825 689 609 527 407 280 169 172 208 159
1805 1811 1206 1154 1272 1520 1552 1646 2036 2168 2263 2328 2398 2452 2410 2368 2287 2242 2189 2043 1880 1746 1640 1336 1216 1066 997 886 822 739 726 643 453 374 415 419 419 446 364 411 575 848 840 772 522 680 1034 974 769 567 545 826 809 852 994 1129 1473 1688 1768 1752 1827 1892 1987 1956 1135 776 456 181 535 514 509 702 1234 1071 1027 883 716 598 478 389 330 322 259 231 177
1880 1857 1544 1057 1239 1336 1459 1659 1998 2210 2340 2413 2472 2398 2363 2351 2310 2290 2080 1975 1845 1804 1577 1339 1170 1069 1024 984 922 846 771 652 627 576 410 260 297 226 330 276 319 567 743 606 600 757 943 804 784 618 744 722 796 1023 1065 1250 1414 1564 1706 1752 1840 1958 1993 2049 1313 688 508 615 615 519 524 744 1198 1045 1049 875 719 664 599 522 412 482 402 398 375
1680 1754 1648 1036 1182 1352 1602 1733 2003 1999 2132 2432 2450 2369 2352 2338 2330 2264 2085 1965 1910 1750 1522 1342 1282 1381 1259 1053 999 928 808 822 823 739 732 634 452 319 279 312 363 373 430 566 642 719 751 833 804 846 768 846 950 923 1012 1149 1403 1489 1470 1316 1824 2023 2108 2152 1139 354 517 1227 644 524 452 846 1293 1159 1247 1053 954 837 695 668 451 456 513 545 467
1168 1412 1321 982 1140 1423 1762 1861 1951 1996 2120 2144 2191 2320 2371 2306 2292 2204 2098 2013 1938 1758 1632 1556 1548 1526 1288 1170 1141 1028 1024 1016 965 976 875 740 663 541 319 292 255 312 353 353 614 597 752 808 913 914 938 983 973 1062 1102 1223 1244 1131 1283 1524 1824 1681 1943 1414 394 162 423 1067 601 534 499 981 1390 1356 1236 1121 1055 954 828 708 515 420 458 370 499
522 592 717 921 1184 1605 1722 1838 1937 2058 2076 2118 2132 2111 2235 2250 2284 2280 2183 2065 1900 1828 1788 1696 1662 1496 1328 1210 1186 1212 1182 1093 1085 985 965 958 918 832 691 407 381 383 386 360 589 590 721 837 871 892 956 977 1087 1006 999 1022 1109 1271 1277 1305 1515 1393 536 217 206 61 187 153 467 617 550 1147 1489 1437 1325 1257 1095 921 840 726 520 478 496 591 579
1221 1099 643 864 1294 1552 1670 1758 1897 1995 2034 2099 2033 2007 2145 2272 2135 2223 2164 2082 1977 1914 1832 1691 1658 1539 1423 1360 1392 1166 1030 973 912 1009 1138 1091 974 919 928 916 644 693 358 468 544 538 624 765 736 842 902 1016 1046 976 963 880 712 494 697 1137 1213 424 102 202 232 316 376 532 1100 731 660 1318 1624 1466 1535 1289 1033 1015 919 623 551 503 462 572 726
1207 966 878 837 1266 1393 1506 1646 1746 1811 1924 1933 1902 1958 2140 2037 2027 2011 2030 1908 1835 1877 1654 1570 1781 1338 1508 1498 1240 1219 912 760 881 1332 1324 1229 1188 991 1027 1034 1039 974 966 852 947 938 821 805 872 876 947 1020 1067 854 300 185 208 157 285 347 426 48 26 128 280 353 348 150 920 750 779 1510 1717 1668 1725 1442 1127 1074 942 618 695 599 545 354 568
1195 815 513 795 1146 1218 1340 1503 1586 1774 1862 1819 1868 1972 2007 1918 1964 1981 1861 1928 1910 1779 1614 1711 1540 1398 1514 1488 1239 1111 982 776 1010 1277 1510 1540 1411 1282 1173 980 1034 1036 1073 1012 1073 1173 1200 1283 1365 1378 1337 1319 1208 645 171 171 156 0 0 0 0 0 26 152 176 385 455 216 610 611 1019 1867 1876 1966 1976 1733 1414 1267 944 770 853 790 645 554 498
1211 872 193 690 1037 1099 1284 1430 1634 1762 1688 1691 1797 1860 1815 1841 1853 1863 1787 1751 1850 1743 1619 1585 1560 1392 1557 1464 1395 1251 1544 1087 1628 2005 2506 2158 1463 1530 1475 1343 1369 1342 1360 1323 1366 1357 1327 1420 1467 1490 1337 1035 796 792 950 999 992 952 986 790 504 0 0 80 159 190 503 321 855 660 1292 2033 2027 2198 2283 2032 1741 1584 1106 985 1160 872 652 662 532
1215 1013 226 605 937 1020 1279 1401 1598 1643 1568 1570 1682 1682 1704 1732 1756 1742 1754 1657 1884 1693 1614 1580 1585 1416 1496 1441 1453 1306 1492 1675 1468 1540 2280 2038 1083 1296 1410 1520 1431 1303 1450 1278 1080 1012 952 869 978 1018 1119 1047 1051 1195 1342 1354 1310 1256 1270 1209 1084 985 726 332 368 450 594 655 806 1117 1669 2341 2128 2348 2461 2338 1956 1791 1264 1151 1210 1028 826 838 738
1065 954 375 462 774 966 1287 1360 1449 1445 1471 1570 1557 1638 1718 1641 1695 1671 1714 1660 1852 1666 1617 1553 1723 1535 1446 1448 1498 1373 1445 1597 1689 1594 1854 1410 1112 1024 1020 1134 1185 1156 1246 1185 1249 1238 1129 944 1085 1140 1226 1317 1303 1313 1390 1383 1265 1218 1211 1192 1218 1136 1105 1076 971 796 668 672 811 1490 1676 2168 2076 2492 2612 2539 2186 1997 1642 1367 1256 1108 869 782 701
475 458 332 378 409 555 979 1195 1267 1224 1266 1373 1524 1648 1654 1626 1651 1571 1688 1519 1796 1796 1586 1557 1789 1724 1712 1444 1693 1617 1571 1648 1255 735 1016 1107 1259 1072 1248 1281 1379 1432 1425 1348 1309 1354 1248 1094 1083 1222 1316 1410 1396 1323 1309 1226 1246 1315 1318 1269 1332 1294 1280 1266 1184 1069 948 824 846 1258 1775 2071 2083 2414 2672 2676 2535 2227 2015 1792 1543 1463 1065 845 688
393 338 334 409 395 394 591 864 1074 1104 1085 1087 1327 1644 1528 1578 1550 1731 1656 1536 1435 1739 1591 1572 1675 1846 1797 1707 1646 1212 436 943 982 1244 1048 1437 1365 1304 1273 1392 1390 1455 1482 1420 1328 1333 1395 1360 1192 1214 1368 1362 1258 1191 1135 1102 1086 1013 1180 1258 1273 1302 1336 1306 1139 1118 1074 1047 993 976 1740 2067 2008 2174 2693 2764 2767 2463 2236 2052 1957 1858 1571 1136 874
512 498 515 595 528 461 459 588 767 862 890 870 1034 1464 1548 1460 1534 1614 1531 1602 1602 1436 1523 1579 1707 1722 1579 1394 1085 1277 1404 1386 1610 1727 1527 1393 1429 1656 1575 1532 1460 1505 1474 1358 1353 1379 1388 1179 1146 1095 983 1019 1028 1026 1072 1111 1136 1138 1157 1198 1240 1262 1295 1290 1248 1218 1069 1046 1017 901 1695 2275 2017 1824 2314 2850 2879 2769 2499 2250 2198 2220 1958 1492 1122
616 689 801 808 743 562 486 476 521 555 735 738 781 1116 1500 1431 1489 1531 1503 1498 1731 1552 1552 1619 1593 1300 427 772 2058 1430 1526 1630 1658 1732 1712 1587 1626 1644 1801 1623 1599 1507 1456 1287 1206 1370 1104 1040 1086 1098 1108 1123 1093 1027 905 937 944 944 1067 1148 1170 1172 1186 1171 1160 1199 1142 1144 1106 945 896 1779 2047 1855 1972 2559 2364 2206 2095 1962 2315 2326 2320 1893 1464
1144 1040 916 907 931 748 549 502 416 416 576 626 596 940 1272 1344 1376 1508 1486 1276 1590 1575 1537 1451 901 493 784 1434 2024 2204 1903 1961 1793 1763 1730 1486 1444 1633 1372 1350 1257 1272 1246 1146 1000 1114 1176 1214 1243 1259 1107 910 868 866 849 808 794 773 800 779 861 879 862 862 912 964 1046 1130 1120 1118 1129 1176 1849 1935 1845 1906 2008 1955 2076 1760 1806 1627 1636 1504 1214
1270 1273 1079 1091 1055 976 773 605 434 419 504 442 567 809 1029 1137 1101 1376 1449 1287 1448 1463 1280 1098 844 1223 1635 1726 1812 1980 2268 2116 1919 1737 1480 1283 1308 1154 1121 1141 1146 1205 1102 977 1116 1109 1134 1103 1069 802 729 731 753 710 642 626 678 694 674 629 622 634 631 643 702 802 954 1071 1195 1238 1178 1032 1554 1956 1778 1492 1529 1506 1512 1633 1414 1538 1557 1409 1255
1296 1247 1282 1333 1156 1067 948 842 675 521 323 231 474 699 805 941 928 1272 1377 1220 1185 1125 960 1114 1467 1571 1524 1588 1724 1798 1879 1863 1758 1408 1437 1116 1085 1227 1210 1042 1166 1109 984 1112 1006 764 912 854 601 513 520 371 434 415 482 475 474 503 508 446 414 416 470 567 575 646 755 915 1108 1234 1254 1131 1243 1777 1460 1548 1288 998 1198 1571 1329 1325 1069 1226 1288
1434 1350 1424 1385 1195 981 932 924 765 547 439 475 550 641 767 823 740 1071 1156 932 1142 1237 1330 1376 1373 1360 1379 1399 1594 1620 1825 1750 1739 1447 1209 1103 1273 1148 1152 1147 1048 952 815 933 711 685 532 508 451 354 634 382 397 399 459 448 435 474 498 445 306 205 372 501 510 529 624 746 879 993 1081 1140 1169 1120 1089 1100 1062 1064 1019 1111 1668 1117 1102 1060 1111
1474 1332 1288 1430 860 887 1026 900 790 567 588 418 569 705 700 598 772 814 1024 1257 1280 1332 1389 1382 1373 1334 1340 1504 1510 1646 1653 1562 1517 1236 1273 1305 1276 1059 1069 968 904 773 582 432 434 527 406 369 277 335 346 251 175 224 309 202 187 227 218 163 154 157 177 417 444 459 486 563 681 791 905 1081 1188 1017 858 850 921 900 758 964 1321 1611 1468 1177 934
1378 1340 1318 1194 870 958 1008 885 892 625 464 575 700 664 696 878 923 889 944 1047 1110 1221 1305 1407 1450 1498 1525 1355 1343 1606 1627 1495 1505 1367 1303 1124 998 960 870 843 740 639 479 186 276 273 220 207 58 123 170 163 157 143 110 126 135 166 153 104 80 120 153 168 200 229 362 456 590 763 883 1005 968 839 807 815 720 661 666 716 873 1172 1298 941 776
1391 1397 1261 918 879 956 1070 882 851 699 596 780 736 772 870 945 937 909 887 903 1016 1162 1292 1410 1451 1445 1433 1196 1235 1221 1349 1438 1429 1256 1134 1041 872 808 730 678 590 504 326 3 195 76 42 88 29 88 107 129 62 44 31 73 104 126 66 44 47 92 74 111 312 314 308 301 369 548 742 824 818 928 804 790 730 690 723 730 688 684 810 1079 1017
1383 1327 1081 1013 1007 991 969 1008 854 679 956 922 783 810 882 930 958 982 986 965 1000 1114 1337 1443 1603 1378 1280 1108 1087 1074 1081 1138 1210 1158 1104 907 765 690 604 448 362 359 0 0 1 3 5 7 22 27 50 10 4 7 28 62 121 196 52 45 35 19 188 331 179 196 53 100 165 261 457 580 667 746 812 809 736 677 649 609 560 593 731 866 1054
1362 1221 1068 1241 909 957 964 1055 845 1073 1078 1006 894 861 871 894 919 992 1048 1088 1177 1249 1323 1435 1459 1188 1020 858 828 861 941 948 960 918 1017 904 790 695 566 488 372 74 0 0 0 0 1 0 0 0 0 0 11 9 125 80 261 218 57 69 26 12 270 56 52 0 0 1 28 129 129 288 530 619 709 724 675 613 581 567 538 476 454 572 800
1242 1149 1163 1096 834 932 1029 980 1084 1160 1170 1100 1003 939 928 937 975 1054 1092 1200 1221 1325 1373 1341 1237 734 692 582 612 655 727 772 811 798 727 584 481 429 354 66 0 0 0 0 0 0 0 0 0 1 0 8 7 223 238 237 258 111 110 74 21 1 5 21 0 4 2 0 0 4 24 91 152 167 205 323 485 635 708 688 635 610 578 506 474
1228 1111 1158 857 912 902 872 935 1148 1221 1238 1198 1100 1062 1050 1026 1012 1068 1147 1292 1353 1271 1287 1263 896 694 583 634 588 597 645 702 719 751 681 626 491 310 0 0 0 0 0 0 0 0 0 0 0 1 15 21 45 196 234 255 178 96 83 66 31 1 4 0 3 4 5 0 0 0 2 17 34 54 111 136 264 493 685 744 710 691 644 559 459
1036 1073 909 836 779 909 921 954 1154 1226 1237 1206 1183 1170 1155 1120 1104 1112 1174 1337 1296 1309 1170 970 690 604 530 574 596 568 630 602 522 592 572 505 276 0 0 0 0 2 2 0 0 2 0 0 0 19 1 17 75 58 64 221 199 99 32 8 0 0 0 0 4 6 0 0 0 0 0 0 0 0 2 46 121 219 365 584 657 665 614 520 434
1009 813 803 804 746 911 1032 1062 1134 1204 1231 1227 1191 1233 1212 1195 1207 1264 1303 1226 1282 1172 847 701 544 503 449 444 415 414 432 440 414 342 0 0 0 0 0 0 0 3 0 0 0 0 0 0 1 6 25 13 60 78 153 64 157 77 14 0 4 1 0 0 0 0 0 0 0 0 0 0 0 0 0 0 8 45 95 100 411 509 318 28 13
846 872 786 777 720 959 1153 1110 1121 1171 1227 1236 1223 1230 1243 1229 1267 1312 1258 1199 1147 783 652 557 530 496 472 505 548 588 596 499 358 286 0 0 0 0 0 0 0 0 0 0 0 0 0 2 10 26 15 59 39 47 48 45 61 84 79 133 74 222 15 2 1 0 0 0 0 0 0 0 0 0 0 0 0 9 62 81 345 231 19 14 4
860 913 879 870 913 1088 1216 1156 1103 1138 1235 1207 1191 1237 1269 1237 1265 1221 1094 958 790 648 596 596 602 587 620 723 787 670 518 366 164 40 0 0 0 0 0 0 0 0 0 0 0 0 0 2 12 22 32 62 20 0 3 20 5 19 59 101 65 180 108 64 5 0 0 0 0 0 0 0 0 0 0 0 0 9 75 60 29 10 70 26 214
910 1003 1023 1023 1082 1189 1256 1173 1172 1184 1239 1238 1232 1286 1330 1219 1174 1046 897 755 660 600 592 580 600 662 677 528 366 205 0 0 0 0 0 0 0 0 0 0 0 0 0 0 0 0 0 10 11 8 27 81 18 0 0 0 0 0 0 0 40 33 4 9 0 0 0 0 0 0 0 0 0 0 0 130 158 106 18 2 4 6 12 38 122
926 1076 1111 1163 1214 1271 1288 1274 1208 1238 1263 1298 1285 1300 1335 1252 1115 908 718 709 670 632 624 586 614 600 528 431 354 207 0 0 0 0 0 0 0 0 0 0 0 0 0 0 0 0 0 10 4 0 2 9 3 0 0 0 0 0 0 0 0 0 4 3 2 4 2 0 0 0 0 0 0 0 0 40 58 44 3 6 14 18 14 13 18
984 1113 1173 1271 1303 1331 1330 1342 1310 1276 1315 1332 1317 1234 1272 1260 1065 888 689 703 744 752 683 634 625 641 658 471 239 0 0 0 0 0 0 0 0 0 0 0 0 0 0 0 0 0 4 0 0 0 0 0 0 0 0 0 0 0 0 0 0 0 0 0 2 5 6 2 0 0 0 0 0 2 8 12 48 14 0 1 10 16 17 13 11
967 1088 1232 1363 1354 1368 1428 1409 1393 1372 1383 1391 1300 1157 1223 1201 1048 841 719 807 825 721 694 704 738 698 641 433 219 0 0 0 0 0 0 0 0 0 0 0 0 0 0 0 0 1 1 0 0 0 0 0 0 0 0 0 0 0 0 0 0 0 0 3 0 0 3 1 0 0 0 0 0 0 0 11 28 10 0 0 3 2 1 2 5
936 1077 1288 1404 1338 1344 1417 1415 1413 1415 1432 1383 1270 1176 1106 1103 941 580 863 893 817 759 756 767 670 557 469 269 0 0 0 0 0 0 0 0 0 0 0 0 0 0 0 0 0 2 2 0 0 0 0 0 0 0 0 0 0 3 2 4 0 0 0 0 0 0 0 8 8 6 6 1 0 0 3 23 2 6 0 0 0 0 0 0 0
1007 1088 1350 1436 1326 1310 1422 1388 1309 1255 1261 1356 1263 1199 1059 927 753 646 878 904 816 758 722 591 511 409 349 0 0 0 0 0 0 0 0 0 0 0 0 0 0 0 0 0 0 1 2 0 0 0 0 0 0 0 0 0 0 0 0 0 0 0 6 13 22 21 22 19 7 4 9 1 0 1 1 14 0 0 3 0 0 0 0 0 0
Wind_Speed
24 26 23 28 31 32 35 37 38 37 37 36 35 34 33 31 27 25 22 21 20 21 23 22 20 21 21 19 16 16 18 18 19 20 19 19 19 18 17 17 17 17 17 17 15 15 13 12 11 11 11 11 11 10 10 9 9 9 10 10 9 9 9 10 11 11 12 12 12 12 13 15 16 17 18 19 18 19 19 18 16 12 10 14 17
30 25 25 27 32 32 35 37 38 38 38 36 35 34 33 31 28 25 23 21 21 21 22 22 20 20 20 18 17 17 19 19 20 20 20 19 18 18 18 18 18 18 18 17 16 15 14 13 11 10 10 9 9 9 8 8 7 7 9 8 8 8 9 9 10 11 12 12 12 11 11 12 14 15 17 18 19 19 19 18 18 10 9 16 17
28 27 25 28 34 33 35 37 38 38 38 37 35 35 33 31 29 26 23 22 21 21 21 22 21 19 19 18 17 18 19 20 21 20 20 19 18 18 18 18 18 19 18 17 16 15 13 12 11 10 9 9 9 8 8 7 6 5 7 7 7 6 7 8 9 10 12 12 12 11 10 10 12 14 15 16 18 18 18 18 18 16 12 17 16
31 26 26 31 36 35 36 37 37 38 38 37 35 34 34 32 30 26 24 22 22 21 21 21 21 20 18 17 17 17 19 20 21 21 20 18 18 18 19 19 20 19 19 17 16 14 13 12 10 9 8 8 8 8 7 7 6 4 5 5 5 5 5 6 8 8 11 12 12 9 7 6 6 11 14 16 17 17 17 18 18 18 18 16 18
30 28 27 28 30 35 37 38 38 38 38 37 35 34 34 34 31 27 25 23 22 21 21 21 21 19 19 18 17 17 18 19 20 20 19 18 18 18 19 20 19 19 18 18 16 15 13 11 10 9 8 8 8 7 7 6 4 4 4 4 4 5 4 5 6 8 9 12 11 9 7 6 6 10 12 15 16 17 17 18 19 19 19 18 17
29 28 27 27 28 32 38 39 38 37 36 36 35 34 34 34 32 28 25 23 21 21 21 21 21 20 19 18 17 17 18 17 17 17 16 16 16 18 18 19 19 19 18 17 15 14 12 11 11 10 9 7 7 7 7 6 5 3 3 3 4 4 4 3 4 6 6 9 10 7 7 7 6 7 12 14 15 16 17 18 18 18 18 19 18
33 27 25 26 27 31 38 38 38 36 36 36 35 34 34 34 32 28 25 23 21 20 21 21 21 20 19 18 17 16 16 16 16 16 14 14 15 16 20 19 19 18 17 15 14 13 12 11 10 10 8 7 7 7 7 7 5 3 2 2 3 3 3 3 2 2 4 7 7 9 8 8 7 7 11 13 14 15 16 17 18 18 17 17 18
29 26 26 25 26 33 39 38 37 36 35 35 35 34 34 35 33 29 26 24 21 21 21 21 20 19 18 18 17 16 15 15 15 15 14 15 15 15 19 19 17 17 16 15 13 11 10 10 9 9 9 7 7 7 7 6 5 4 3 2 2 3 2 2 1 3 4 6 7 9 10 8 7 7 13 13 14 14 15 16 17 18 18 18 18
29 26 25 26 27 38 36 35 35 35 34 34 34 34 34 35 33 30 26 24 22 21 21 20 19 19 19 18 17 15 13 13 14 15 14 15 16 16 18 19 18 16 14 13 11 10 9 9 8 9 8 7 7 6 6 5 5 4 3 2 2 2 2 1 0 2 3 5 8 10 11 10 9 8 13 15 15 14 13 11 13 17 18 19 19
28 25 25 25 27 37 35 34 33 34 34 35 35 35 35 35 33 30 27 25 22 21 20 20 19 18 19 19 17 14 13 12 13 14 14 15 16 17 17 19 19 17 16 13 12 9 8 8 8 7 7 7 6 6 5 5 5 3 2 2 1 1 2 1 0 2 4 3 8 12 11 13 9 8 12 16 16 14 13 14 12 13 14 18 19
28 25 25 25 28 34 31 32 33 34 35 35 35 36 36 35 34 31 28 25 22 21 21 21 19 17 18 18 17 15 13 12 12 13 14 15 17 17 17 14 13 17 15 12 10 9 7 7 7 6 6 6 6 5 4 4 4 3 3 2 1 1 1 1 1 3 4 5 11 12 14 17 9 8 14 16 15 15 15 13 13 14 15 16 17
27 24 23 24 31 30 30 31 33 35 36 37 36 37 36 35 34 31 28 25 22 21 21 20 18 17 18 19 18 16 14 13 12 12 13 15 17 18 17 15 13 15 13 11 9 8 7 6 6 6 5 5 4 3 3 2 2 3 3 3 3 3 2 3 1 2 2 9 11 11 12 10 9 10 16 16 15 15 14 14 13 14 14 15 15
27 25 24 24 24 29 30 32 35 37 37 37 37 37 36 35 34 31 28 25 22 21 21 21 19 18 18 18 18 16 15 14 13 13 13 15 16 17 17 17 15 15 14 11 10 8 7 6 5 4 4 3 2 2 2 2 2 3 3 3 3 3 2 4 1 1 2 10 9 10 10 9 8 14 16 16 15 14 14 13 13 13 13 13 14
30 27 24 23 23 32 31 33 34 37 37 36 36 35 35 35 33 30 27 24 22 21 21 21 20 19 18 18 18 17 15 13 12 11 12 14 15 16 17 17 16 15 15 13 10 9 8 6 5 4 3 2 1 0 1 2 3 3 3 3 2 3 1 5 4 2 2 8 9 10 9 8 8 16 17 17 17 16 15 14 13 13 13 12 14
35 29 25 23 25 28 35 33 34 35 35 35 34 34 33 32 31 29 26 24 22 21 22 21 20 19 18 19 18 18 16 15 13 13 12 13 15 16 17 18 18 17 16 14 11 10 9 6 5 4 3 2 0 1 3 3 4 4 4 4 3 3 2 6 7 4 2 8 9 10 10 9 13 17 18 18 18 17 16 15 14 14 14 14 14
35 33 27 25 27 29 30 36 35 35 34 34 34 34 33 32 31 28 25 23 21 21 21 21 20 19 19 18 18 18 17 15 13 13 13 13 14 15 16 18 19 19 17 15 12 10 9 7 6 5 4 3 2 1 3 4 5 5 5 4 3 3 4 4 8 6 3 8 10 11 11 10 19 19 20 20 19 19 18 17 16 15 15 16 14
35 34 31 29 30 30 32 32 34 38 35 34 34 35 33 32 30 27 24 22 21 21 21 21 20 19 19 18 18 18 17 15 14 13 13 13 13 14 15 16 18 19 19 17 14 12 10 8 8 7 6 5 4 3 3 4 5 5 5 5 5 4 5 1 9 9 7 9 10 11 11 10 18 20 21 21 21 21 20 19 17 16 16 17 16
36 34 33 33 32 33 33 33 33 32 31 34 36 36 33 32 29 25 23 21 20 20 20 20 19 19 18 17 17 18 17 16 15 14 13 13 13 14 14 15 16 17 18 17 16 14 12 10 9 8 7 6 5 5 4 5 5 6 6 7 6 6 5 2 8 9 8 12 12 13 13 13 19 21 22 23 23 23 21 19 17 17 17 17 16
36 34 34 35 35 35 35 33 32 31 31 30 29 33 35 33 30 25 22 20 19 20 20 19 19 18 17 16 17 18 17 16 16 15 15 14 14 14 14 14 15 16 16 17 16 15 13 11 9 9 8 6 6 5 5 5 5 6 6 7 7 6 7 1 6 7 7 11 14 14 14 16 20 21 23 24 24 23 21 21 19 19 18 16 16
37 36 35 34 36 36 35 33 33 32 31 29 30 29 33 33 29 24 21 19 19 19 19 18 18 17 16 16 17 16 16 15 16 14 16 15 14 13 14 14 15 16 15 16 16 15 14 12 11 9 8 6 6 5 5 5 5 6 6 7 8 8 3 3 5 nan 8 10 14 15 15 19 22 22 23 24 24 23 23 21 20 20 19 18 18
36 37 36 36 36 37 36 33 32 31 31 30 28 28 29 32 27 23 20 19 18 19 18 18 16 15 15 16 15 15 14 14 14 14 15 14 15 14 15 15 14 15 15 16 16 15 14 13 11 10 9 8 7 6 6 5 5 6 8 8 8 5 5 4 4 8 9 10 14 16 18 20 23 23 24 24 24 24 25 23 21 20 18 19 18
38 38 37 37 37 36 35 33 31 32 30 28 26 26 26 27 21 17 15 16 17 17 16 14 14 12 15 15 14 15 15 14 14 15 15 15 14 15 15 15 15 14 14 14 14 15 15 15 13 12 11 10 9 9 8 7 6 7 8 9 6 nan nan 6 6 5 9 11 13 16 21 21 23 24 25 25 24 24 25 25 24 22 20 18 19
38 39 39 38 37 36 34 32 31 31 30 28 26 25 25 22 19 16 15 16 16 16 15 14 12 13 14 14 14 14 15 15 15 15 16 16 16 16 16 15 15 14 14 13 13 13 13 13 12 11 11 10 10 9 8 8 8 nan nan nan nan nan nan 9 8 7 8 12 14 17 22 23 24 24 25 25 26 26 25 25 26 23 22 20 18
37 38 40 38 36 34 31 29 29 29 29 26 25 25 23 20 17 16 15 15 15 16 14 12 12 14 14 14 14 14 14 15 15 17 17 17 17 16 16 16 15 14 13 13 12 12 13 12 11 9 8 9 9 9 9 8 8 9 9 10 11 nan nan nan 11 10 9 11 14 19 22 26 26 27 27 26 27 28 27 27 27 25 24 22 20
36 38 38 35 31 30 27 25 26 27 26 24 24 24 21 18 16 15 15 15 15 14 12 12 13 14 15 15 14 14 14 15 15 14 17 19 18 17 15 15 15 14 13 14 15 15 15 16 14 12 11 10 8 8 9 8 7 7 8 10 11 12 13 13 14 13 12 13 14 20 24 26 28 29 29 29 28 29 30 30 28 27 25 24 20
35 36 36 33 29 26 25 24 25 24 24 23 23 22 21 17 16 14 14 14 13 13 12 12 13 14 15 15 15 15 15 16 17 17 18 20 19 17 17 17 15 14 15 14 15 16 17 18 17 15 14 13 12 10 10 10 9 9 10 10 12 13 14 14 15 15 14 14 16 20 25 28 29 31 32 32 32 31 32 32 30 27 26 24 22
30 32 34 32 30 27 25 24 24 23 22 22 22 21 19 16 15 14 13 12 12 13 12 12 12 14 14 15 15 15 16 16 19 21 21 20 19 18 17 17 16 14 15 15 14 16 17 18 17 16 15 14 13 12 11 10 11 11 12 14 15 16 17 17 17 17 16 15 15 18 22 27 29 30 32 34 34 34 33 33 32 29 27 25 24
31 32 33 32 30 27 25 25 24 22 20 20 22 20 17 16 14 13 12 12 13 12 11 11 12 14 13 14 15 17 19 18 20 20 19 19 18 18 18 18 16 14 15 16 15 15 16 17 17 16 14 14 13 13 12 11 10 11 11 12 15 17 18 19 19 19 18 17 15 15 18 26 29 28 30 34 35 34 34 34 33 31 28 27 25
34 33 32 31 30 28 25 25 22 21 20 20 21 18 17 15 14 12 11 12 14 12 11 11 11 12 13 14 15 17 18 19 19 17 19 19 18 18 19 18 18 16 16 15 15 15 16 17 17 17 17 16 15 15 14 13 12 12 13 13 14 15 17 17 18 18 19 20 18 16 16 21 26 32 33 31 31 31 32 32 31 31 29 28 26
34 35 33 30 30 29 26 23 20 20 21 21 19 19 17 14 12 11 12 15 14 11 11 12 12 13 14 15 16 17 18 19 18 17 19 18 18 17 18 17 16 17 17 16 16 18 18 18 17 16 14 13 13 13 14 12 11 11 11 12 12 14 15 18 19 20 21 21 22 22 20 20 27 29 29 29 31 30 28 29 28 29 30 29 27
33 36 36 33 29 29 27 23 20 20 21 19 20 18 15 12 11 12 14 14 13 11 11 12 12 12 16 17 17 18 18 19 19 18 17 16 15 15 15 17 17 17 19 17 18 18 18 17 15 14 13 13 13 14 14 14 13 13 13 13 14 15 16 17 17 19 20 19 21 23 25 27 28 30 30 28 29 27 25 25 24 23 24 25 24
34 37 38 34 29 26 27 25 21 20 20 19 19 17 13 11 11 13 14 13 14 13 13 13 14 15 17 18 18 17 17 18 19 19 19 16 14 14 15 17 17 17 17 15 15 15 17 16 16 16 16 15 14 14 15 16 15 15 16 15 16 17 18 19 19 19 18 19 22 25 26 25 27 31 33 30 27 28 29 29 23 18 19 20 15
26 38 39 35 26 24 29 27 22 20 19 17 16 13 11 11 14 14 14 16 17 16 15 15 17 17 18 18 17 16 16 16 17 20 19 17 15 14 15 16 18 17 17 16 16 16 17 17 17 16 16 16 15 15 16 16 17 16 17 16 17 17 19 20 20 20 20 20 20 23 23 26 28 29 30 29 29 28 27 26 26 25 19 16 18
24 28 33 30 25 23 27 27 20 17 15 15 13 12 12 14 15 16 18 18 16 17 16 16 17 18 17 15 17 16 16 15 16 19 18 17 15 15 16 18 17 18 17 17 16 17 18 18 17 17 16 16 15 15 16 16 17 17 18 18 19 19 20 20 20 20 20 21 22 23 24 27 29 30 30 29 27 26 25 24 24 26 26 24 22
23 24 26 28 27 23 26 23 16 14 14 14 12 14 15 17 18 19 19 17 17 18 17 17 18 17 16 15 16 15 14 16 15 16 17 16 15 15 17 15 16 17 18 17 18 18 18 18 18 17 15 15 16 15 17 18 19 18 18 19 20 20 20 20 20 20 20 21 22 24 25 29 31 30 29 27 26 24 24 23 23 24 24 20 15
22 23 29 32 23 21 22 20 16 12 14 15 13 15 17 18 20 20 19 17 18 18 18 18 17 16 14 14 14 12 14 17 19 17 16 16 15 17 17 17 16 17 18 17 18 17 15 15 nan 18 16 14 15 15 17 19 19 20 20 21 nan 21 21 21 21 20 20 22 22 23 28 30 31 31 30 28 26 25 25 26 24 23 24 23 19
23 23 26 22 20 20 20 19 14 11 13 14 14 16 18 20 21 21 19 19 19 19 18 17 17 16 14 14 13 14 16 17 17 13 15 17 16 18 18 17 17 18 17 nan 16 nan nan nan nan nan 18 16 nan nan nan nan 19 20 nan nan nan nan nan 22 22 22 22 23 23 25 27 28 30 29 29 28 26 24 22 21 22 22 21 22 21
23 21 23 22 20 22 21 19 17 11 11 14 15 17 17 19 21 21 20 20 19 18 18 17 16 15 15 15 15 16 17 14 11 10 14 17 16 17 17 17 17 17 nan nan nan nan nan nan nan nan nan nan nan nan nan nan 20 20 nan nan nan nan 24 24 25 24 nan 24 24 24 24 27 28 28 28 27 27 25 24 22 21 21 21 23 22
26 23 23 22 27 28 24 19 18 13 13 15 16 17 17 18 20 21 21 19 19 19 18 18 16 15 16 16 15 16 15 10 7 9 15 17 16 16 17 16 17 nan nan nan nan nan nan nan nan nan nan nan nan nan 17 nan 19 20 nan nan nan nan 24 nan nan nan nan nan nan 24 24 24 27 28 27 26 26 25 24 24 23 23 23 21 20
25 24 24 27 31 31 25 18 17 14 14 15 16 17 17 18 20 20 22 19 18 18 17 17 16 17 17 18 16 16 14 9 7 11 16 16 16 16 17 nan nan nan nan nan nan nan nan nan nan nan nan nan nan 15 16 17 20 22 21 nan nan nan nan nan nan nan nan nan nan nan nan nan 22 23 24 25 25 25 25 25 25 25 24 23 21
23 24 25 27 28 25 23 20 17 15 15 16 16 17 16 17 18 20 21 18 18 17 17 16 17 17 18 17 16 16 16 14 13 17 17 15 16 17 nan nan nan nan nan nan nan nan nan nan nan nan nan nan nan 15 16 18 21 nan nan nan nan nan nan nan nan nan nan nan nan nan nan nan nan nan 19 21 22 23 24 24 25 25 26 26 25
17 19 23 25 23 21 23 23 19 17 17 16 16 16 15 16 18 18 18 17 18 17 16 15 17 18 18 19 18 19 19 16 17 20 17 15 17 nan nan nan nan nan nan nan nan nan nan nan nan nan nan nan nan nan nan 19 23 nan nan nan nan nan nan nan nan nan nan nan nan nan nan nan nan nan nan nan 20 21 23 25 26 25 25 26 25
19 18 19 20 21 23 23 21 18 18 17 17 18 16 15 16 18 18 19 17 14 14 16 16 17 20 21 21 19 18 17 16 19 19 nan nan nan nan nan nan nan nan nan nan nan nan nan nan nan nan nan nan nan nan 19 nan 23 nan nan nan nan nan nan nan nan nan nan nan nan nan nan nan nan nan nan nan nan nan nan nan 25 24 23 nan nan
18 18 18 19 20 21 21 20 18 16 15 15 17 16 17 18 20 21 19 17 15 15 15 16 18 21 21 18 17 15 14 17 19 17 nan nan nan nan nan nan nan nan nan nan nan nan nan nan nan nan nan nan nan nan nan nan nan nan nan 26 nan 26 nan nan nan nan nan nan nan nan nan nan nan nan nan nan nan nan nan nan 24 23 nan nan nan
18 16 17 19 20 21 19 19 17 15 15 15 16 16 18 20 22 23 21 21 19 16 17 18 19 19 19 17 14 12 14 17 17 nan nan nan nan nan nan nan nan nan nan nan nan nan nan nan nan nan nan nan nan nan nan nan nan nan nan 24 nan 23 22 nan nan nan nan nan nan nan nan nan nan nan nan nan nan nan nan nan nan nan nan nan 22
19 17 17 18 20 20 19 18 17 16 16 15 16 17 17 20 21 23 21 19 18 17 19 21 19 19 18 14 13 13 nan nan nan nan nan nan nan nan nan nan nan nan nan nan nan nan nan nan nan nan nan nan nan nan nan nan nan nan nan nan nan nan nan nan nan nan nan nan nan nan nan nan nan nan nan 21 21 23 nan nan nan nan nan nan 20
20 20 19 18 19 19 18 16 16 15 14 14 15 18 20 20 21 23 22 21 21 16 17 18 18 15 14 14 14 15 nan nan nan nan nan nan nan nan nan nan nan nan nan nan nan nan nan nan nan nan nan nan nan nan nan nan nan nan nan nan nan nan nan nan nan nan nan nan nan nan nan nan nan nan nan nan nan nan nan nan nan nan nan nan nan
24 23 22 21 21 20 17 15 15 15 13 14 14 16 20 20 22 23 21 20 19 20 19 18 14 13 14 14 14 nan nan nan nan nan nan nan nan nan nan nan nan nan nan nan nan nan nan nan nan nan nan nan nan nan nan nan nan nan nan nan nan nan nan nan nan nan nan nan nan nan nan nan nan nan nan nan nan nan nan nan nan nan nan nan nan
25 24 24 23 23 21 18 15 15 15 14 13 15 16 19 21 21 22 20 16 16 18 17 15 15 14 14 11 15 nan nan nan nan nan nan nan nan nan nan nan nan nan nan nan nan nan nan nan nan nan nan nan nan nan nan nan nan nan nan nan nan nan nan nan nan nan nan nan nan nan nan nan nan nan nan nan nan nan nan nan nan nan nan nan nan
24 25 24 24 23 21 18 16 15 14 15 16 17 18 20 21 21 19 19 15 14 14 15 14 13 10 10 9 nan nan nan nan nan nan nan nan nan nan nan nan nan nan nan nan nan nan nan nan nan nan nan nan nan nan nan nan nan nan nan nan nan nan nan nan nan nan nan nan nan nan nan nan nan nan nan nan nan nan nan nan nan nan nan nan nan
22 23 22 22 21 19 17 16 15 15 16 17 17 17 17 18 19 18 16 14 12 13 13 12 11 9 9 nan nan nan nan nan nan nan nan nan nan nan nan nan nan nan nan nan nan nan nan nan nan nan nan nan nan nan nan nan nan nan nan nan nan nan nan nan nan nan nan nan nan nan nan nan nan nan nan nan nan nan nan nan nan nan nan nan nan
Wind_Direction
350 345 346 345 347 345 341 338 336 336 335 334 331 330 331 331 328 323 315 307 309 311 314 316 320 321 326 329 324 324 326 327 326 325 326 325 324 325 326 325 321 321 321 321 321 315 310 307 304 304 302 302 302 304 304 303 305 307 305 301 300 301 306 309 310 308 308 305 305 302 298 294 294 289 285 282 278 276 274 275 276 280 285 280 278
338 340 340 342 344 342 339 335 333 333 332 331 330 329 330 331 328 323 317 309 309 311 313 314 315 319 325 328 325 322 324 325 326 326 324 324 324 326 325 324 321 319 318 316 313 309 309 307 306 303 303 303 303 306 308 310 315 319 307 299 301 303 307 310 311 308 304 301 299 297 297 298 299 296 291 289 284 279 277 276 276 281 287 282 279
328 334 337 339 340 338 336 332 331 330 329 329 329 328 328 330 327 323 318 313 310 311 311 311 311 315 322 326 324 322 323 325 326 326 327 327 326 327 328 326 322 321 316 311 308 307 309 311 311 311 312 312 313 314 315 317 330 330 308 308 306 309 302 303 306 309 305 301 297 298 296 297 304 304 302 297 290 284 281 278 278 278 280 278 280
327 333 334 336 335 334 333 331 330 329 328 327 328 327 327 329 327 323 320 315 310 309 309 308 308 313 321 324 323 321 322 325 327 328 327 327 328 329 329 327 325 322 319 315 312 311 310 311 312 314 318 320 321 323 325 329 338 336 306 306 309 304 300 296 311 315 310 304 302 303 331 340 328 307 311 307 301 295 289 284 281 280 281 281 279
324 330 332 331 330 331 331 330 330 328 326 325 326 326 326 327 326 323 320 315 309 306 307 306 306 311 318 323 324 321 322 325 328 330 332 332 331 332 331 330 327 325 322 322 320 316 311 307 308 310 317 325 331 331 334 338 345 336 306 296 287 295 295 304 312 321 315 310 306 311 329 332 338 317 318 312 306 301 295 290 287 285 284 283 281
324 329 328 326 327 329 330 329 329 328 326 324 324 324 325 326 326 322 318 313 306 304 305 304 304 308 315 321 324 324 323 322 326 329 332 336 339 337 335 330 330 328 326 323 322 318 314 307 307 309 314 328 338 342 348 352 358 342 298 281 278 281 290 303 323 345 355 354 309 326 325 322 333 342 324 316 311 309 302 295 288 283 282 283 283
323 329 328 325 325 328 329 328 329 328 325 323 322 323 324 325 324 321 316 310 304 303 303 302 302 305 311 316 320 322 325 323 321 321 323 339 345 341 334 332 330 329 327 324 324 321 318 313 309 310 312 320 337 352 358 358 4 352 320 297 284 281 289 294 332 355 20 17 358 339 330 323 329 345 322 317 312 309 308 300 295 288 284 282 282
316 326 329 325 324 328 328 328 328 327 326 322 321 322 323 323 323 319 313 308 304 302 301 299 301 303 309 314 319 323 324 322 321 320 323 323 325 333 338 333 331 331 329 326 324 323 319 316 313 312 312 315 331 346 359 4 0 356 344 343 302 288 291 307 352 39 44 15 14 344 332 324 336 342 322 315 309 310 307 304 300 295 290 285 280
316 323 326 323 324 327 327 327 327 327 325 322 320 321 321 323 322 317 311 307 304 300 298 299 300 304 309 314 318 322 318 319 321 323 326 326 327 330 338 337 333 333 331 324 326 325 322 319 316 314 317 319 324 334 345 357 0 6 6 351 326 308 288 298 356 104 41 11 11 338 326 335 343 335 318 310 307 305 303 297 298 297 294 290 285
315 318 321 320 322 326 327 326 326 327 325 322 320 320 321 322 320 315 311 307 302 297 298 299 300 303 306 312 314 313 312 316 324 327 329 329 329 333 339 343 341 339 336 332 328 327 326 320 316 315 318 327 331 331 340 350 7 23 31 28 360 328 300 309 201 22 19 21 331 323 327 341 342 322 315 312 305 306 307 301 300 299 296 291 289
310 313 315 317 321 324 326 325 325 326 325 322 320 318 319 320 319 315 311 305 299 297 297 297 297 298 299 304 308 312 312 314 322 327 331 332 333 336 337 338 348 352 337 332 330 328 327 322 315 314 320 329 344 340 347 356 9 31 60 72 79 88 261 224 241 9 11 330 319 322 335 341 332 317 313 309 309 307 307 305 303 298 294 294 291
303 308 312 313 321 320 323 322 322 324 324 322 319 317 316 318 318 315 309 303 300 297 295 296 295 293 297 302 307 314 315 315 320 327 331 331 334 337 339 340 341 335 332 331 330 329 329 327 318 313 320 325 343 354 356 13 37 48 65 86 107 131 183 203 322 22 14 333 326 327 328 333 327 327 322 318 313 307 303 303 303 301 297 292 289
296 301 306 309 310 316 317 318 320 321 321 320 317 315 314 316 319 315 307 303 302 295 294 295 295 293 296 302 310 317 317 316 321 325 326 328 332 337 342 342 341 343 342 340 334 333 332 330 323 317 315 320 334 350 31 58 65 66 72 77 87 112 164 229 1 118 309 321 327 317 322 329 323 329 325 325 320 312 304 299 299 299 299 298 291
295 296 299 299 303 311 312 314 316 317 317 316 314 312 313 315 318 313 307 305 299 295 293 294 294 294 295 300 306 311 312 311 314 323 326 327 330 337 341 344 345 345 345 343 338 337 335 330 328 326 314 315 324 48 112 108 99 97 87 79 69 84 126 296 305 37 331 327 329 326 333 337 333 331 329 329 325 319 312 303 301 300 299 290 288
296 296 293 293 300 306 310 311 311 311 311 310 309 308 309 313 315 310 306 303 298 297 294 294 294 293 295 300 306 312 313 313 315 317 321 326 328 334 340 343 347 347 345 347 347 340 335 334 332 335 330 328 347 142 129 128 122 122 112 100 75 86 121 323 319 350 6 338 339 337 348 346 345 336 335 332 327 323 317 310 300 296 299 296 292
291 294 292 290 296 302 304 309 307 307 306 306 305 305 308 311 313 309 304 301 299 298 293 292 293 292 294 299 307 311 312 313 312 314 320 325 327 330 338 345 348 351 354 353 354 350 342 337 342 343 346 350 2 81 117 118 123 125 124 116 113 114 116 289 313 337 360 345 343 341 345 345 348 341 338 335 331 325 320 317 312 304 297 295 297
287 290 290 290 295 297 301 302 304 307 304 303 303 304 306 309 310 306 304 301 300 296 292 291 291 291 293 300 307 310 312 313 313 315 316 318 321 326 333 342 348 352 356 360 355 353 347 348 347 352 354 359 13 38 77 103 113 115 115 117 115 112 112 290 319 334 354 346 344 341 346 347 347 342 336 334 333 329 325 322 318 312 304 300 301
287 289 290 292 294 297 297 298 301 299 299 301 301 302 305 307 307 305 303 300 298 294 290 290 289 290 292 301 309 312 314 315 315 315 313 313 316 322 328 334 342 350 358 3 2 1 359 357 354 359 6 18 25 37 62 82 101 111 111 114 107 108 103 108 324 332 349 345 346 344 347 354 353 344 336 334 333 332 330 323 318 318 311 306 301
286 289 290 291 294 294 294 294 294 295 295 294 295 300 304 306 307 305 302 298 295 292 289 288 289 290 296 305 311 312 314 316 317 315 314 315 318 321 324 329 337 348 357 5 7 8 7 3 1 2 8 22 30 40 50 69 82 95 101 105 108 108 117 63 319 331 340 335 342 344 347 357 354 348 340 336 335 333 328 327 326 319 317 314 307
286 289 289 289 291 290 290 290 291 291 291 290 293 296 303 306 307 305 302 296 293 289 289 287 290 293 298 304 311 307 310 310 316 311 315 319 321 320 327 327 334 346 356 2 9 10 9 8 5 8 13 18 33 35 40 52 70 79 88 94 99 113 82 49 335 nan 337 343 342 345 349 358 353 351 344 338 335 331 328 326 326 322 321 319 315
283 287 288 287 286 286 288 286 286 287 287 287 288 292 299 305 305 305 301 295 288 288 286 288 290 295 296 302 304 295 298 302 306 304 316 312 323 327 329 331 335 343 352 0 6 9 11 10 8 10 11 15 21 38 43 50 57 70 81 88 95 77 59 60 40 334 331 340 344 344 356 359 354 352 346 340 336 332 326 325 324 322 320 321 320
284 284 283 283 282 282 284 284 283 284 284 283 285 288 292 297 293 291 283 282 281 281 276 273 290 279 297 298 294 297 300 303 303 313 309 313 320 330 330 332 335 340 348 359 4 8 10 11 10 11 15 15 21 1 3 20 45 57 62 76 53 nan nan 45 51 22 337 341 343 349 358 360 357 354 348 343 339 333 329 328 326 325 323 324 321
282 280 279 278 278 277 277 278 278 280 281 281 283 283 286 287 287 281 276 280 276 272 267 279 277 281 283 287 295 296 300 303 306 314 311 321 320 329 332 333 334 337 343 354 3 9 13 15 18 15 13 16 357 356 360 4 9 nan nan nan nan nan nan 24 31 30 4 342 345 356 359 358 359 358 353 347 343 337 332 332 329 328 326 322 323
275 271 270 266 268 269 270 271 274 275 277 278 277 279 283 284 280 274 272 270 267 268 272 277 279 280 284 289 294 296 298 306 318 329 323 310 315 326 332 333 335 335 341 345 354 2 13 14 15 16 356 343 344 347 348 356 360 4 5 5 6 nan nan nan 6 14 9 349 348 356 359 358 357 359 357 353 349 342 337 335 333 329 328 326 326
270 264 260 261 259 260 264 266 267 269 273 275 277 279 281 279 273 271 270 270 268 274 277 278 277 281 286 293 299 300 303 306 306 304 303 307 310 315 317 320 316 318 329 335 341 349 353 354 351 349 348 348 345 348 342 347 355 357 358 359 358 357 355 354 357 0 2 353 347 353 356 357 356 357 357 355 353 348 344 340 337 332 329 328 328
277 274 270 267 265 262 264 264 265 268 272 273 276 281 283 276 272 272 271 274 275 279 279 277 280 284 288 297 304 308 309 310 308 309 307 311 314 317 319 316 315 318 322 334 338 344 350 349 348 347 345 344 345 348 346 345 348 351 353 354 354 351 349 350 351 353 355 351 346 351 356 356 355 355 355 354 354 353 348 344 340 337 331 328 325
274 276 274 270 269 263 262 264 266 269 271 272 276 278 280 276 271 274 277 281 278 279 280 281 284 286 295 301 308 311 310 315 312 314 313 314 313 314 315 312 313 318 319 325 334 342 348 349 344 343 338 337 341 341 344 343 341 344 344 347 346 346 346 346 345 346 346 344 341 349 355 355 354 354 355 355 354 354 352 347 343 339 334 328 324
265 265 268 267 265 265 265 267 269 273 276 276 278 282 280 275 275 281 286 288 283 281 286 292 291 296 302 309 307 308 310 308 303 300 306 308 309 309 309 309 311 317 318 323 334 343 340 338 337 336 335 332 330 332 333 334 333 331 332 337 339 343 343 343 342 341 338 326 328 340 354 357 355 351 358 355 354 354 354 350 345 340 337 330 325
267 262 264 266 263 261 262 265 271 280 279 277 282 284 276 273 275 280 287 281 280 291 302 297 298 305 308 311 303 294 290 291 291 296 303 301 305 307 307 312 316 318 313 317 331 336 336 335 335 334 333 331 328 329 327 328 329 330 331 333 332 334 335 335 334 332 326 328 332 335 340 354 353 354 1 356 352 356 354 352 349 341 337 333 327
272 267 265 260 254 253 255 261 272 277 275 276 282 278 274 273 272 277 277 272 283 302 302 304 305 306 307 295 288 289 287 288 290 288 288 290 292 296 304 306 306 307 308 315 329 332 334 331 327 322 316 315 314 315 312 313 311 309 309 312 317 322 326 326 327 329 328 331 331 327 331 352 357 360 358 356 355 0 358 0 354 347 340 335 329
263 269 266 260 253 251 252 253 259 264 266 276 278 277 274 272 273 275 272 282 294 302 300 304 306 298 287 283 284 286 291 292 292 292 290 287 290 296 299 301 293 291 303 314 322 321 322 318 319 315 311 310 311 313 308 306 303 298 298 301 310 312 317 318 321 324 329 333 332 331 341 354 355 357 358 351 355 357 3 3 356 346 344 334 329
262 254 246 255 260 259 258 252 251 259 265 272 277 280 282 280 279 276 280 288 289 289 292 294 286 277 276 276 278 279 288 292 292 291 286 285 288 291 287 280 281 289 295 298 302 311 315 315 311 311 312 308 305 302 304 301 299 300 299 302 306 310 314 316 318 320 325 329 333 337 340 340 346 351 352 354 353 356 4 11 1 349 337 321 302
277 270 251 246 261 265 262 254 248 256 269 279 288 291 286 280 277 278 277 271 276 281 285 280 277 275 275 282 286 288 290 292 293 293 287 281 281 282 281 284 289 289 290 297 304 309 306 306 308 309 303 301 302 301 302 300 299 298 299 301 303 306 309 311 315 317 322 328 332 335 335 332 331 335 338 349 353 355 3 9 7 350 344 329 341
281 280 267 256 257 242 243 242 248 263 280 287 287 283 278 271 273 270 267 270 278 280 276 276 276 275 282 289 290 288 284 281 293 290 283 280 280 278 285 285 284 289 295 296 295 304 305 309 311 306 305 303 304 307 303 302 303 304 304 307 307 310 311 311 313 317 321 324 327 327 329 318 318 325 334 345 350 353 359 4 7 1 356 352 347
266 272 272 252 244 231 225 232 245 266 283 285 277 266 262 265 262 264 267 272 274 277 277 277 275 280 286 290 288 286 285 285 291 294 283 276 273 274 277 284 288 289 287 295 300 304 310 311 312 306 307 303 307 311 308 309 307 307 310 309 311 311 310 312 313 317 318 320 320 323 317 319 325 326 331 335 338 349 355 360 2 1 358 353 353
280 278 256 243 247 227 221 234 240 267 284 278 266 263 260 259 260 263 267 269 273 273 276 276 282 284 290 293 292 297 301 293 294 293 276 265 270 271 270 274 278 284 289 296 302 304 312 309 nan 308 304 311 312 312 309 311 311 312 314 313 nan 312 313 314 314 316 316 313 313 311 312 321 322 326 329 332 332 333 346 351 358 359 359 1 359
294 289 281 266 256 242 237 251 250 265 273 274 272 262 262 263 263 265 268 269 272 275 277 281 282 286 291 295 296 306 304 304 293 282 272 266 264 266 268 275 281 286 291 nan 301 nan nan nan nan nan 313 321 nan nan nan nan 314 315 nan nan nan nan nan 314 315 316 312 307 307 307 315 318 321 325 326 328 328 328 333 347 352 356 356 358 357
287 287 289 288 279 262 258 260 248 254 271 267 267 266 267 270 269 270 269 270 272 273 276 278 280 287 294 295 301 309 305 304 286 272 271 270 268 267 271 275 281 287 nan nan nan nan nan nan nan nan nan nan nan nan nan nan 316 314 nan nan nan nan 313 314 316 313 nan 305 304 305 313 320 320 324 325 326 327 326 327 335 346 349 353 353 353
289 294 288 279 271 261 259 263 256 254 264 267 268 268 266 263 267 270 270 269 269 269 275 277 284 293 299 303 307 302 299 290 269 276 276 273 269 268 272 278 283 nan nan nan nan nan nan nan nan nan nan nan nan nan 317 nan 313 313 nan nan nan nan 315 nan nan nan nan nan nan 306 307 310 319 322 326 327 327 328 330 330 329 326 327 338 341
287 290 289 283 278 259 252 261 261 260 264 266 270 271 271 276 274 268 267 269 268 273 275 284 294 303 310 310 310 297 289 275 267 284 281 274 272 271 275 nan nan nan nan nan nan nan nan nan nan nan nan nan nan 309 310 309 315 315 316 nan nan nan nan nan nan nan nan nan nan nan nan nan 311 318 324 328 327 329 330 331 329 327 325 329 338
286 289 287 294 291 264 257 270 268 270 271 272 277 283 283 278 271 274 275 274 280 280 283 293 304 313 311 306 295 286 286 274 272 283 278 271 270 270 nan nan nan nan nan nan nan nan nan nan nan nan nan nan nan 308 307 315 309 nan nan nan nan nan nan nan nan nan nan nan nan nan nan nan nan nan 316 322 325 328 329 330 329 327 329 329 328
273 275 288 298 293 273 270 270 266 271 274 275 280 285 287 287 280 278 276 280 285 288 294 306 312 307 303 295 289 288 284 275 277 283 279 271 266 nan nan nan nan nan nan nan nan nan nan nan nan nan nan nan nan nan nan 309 307 nan nan nan nan nan nan nan nan nan nan nan nan nan nan nan nan nan nan nan 322 325 328 328 328 330 332 332 329
261 254 256 268 279 278 272 270 271 275 274 275 277 281 274 275 276 277 279 275 271 284 300 303 298 297 292 292 293 287 279 277 280 280 nan nan nan nan nan nan nan nan nan nan nan nan nan nan nan nan nan nan nan nan 307 nan 308 nan nan nan nan nan nan nan nan nan nan nan nan nan nan nan nan nan nan nan nan nan nan nan 326 328 331 nan nan
258 258 265 267 267 268 266 269 274 274 276 273 272 272 273 267 263 269 264 267 279 283 280 284 288 289 289 294 288 281 274 273 275 273 nan nan nan nan nan nan nan nan nan nan nan nan nan nan nan nan nan nan nan nan nan nan nan nan nan 311 nan 315 nan nan nan nan nan nan nan nan nan nan nan nan nan nan nan nan nan nan 321 326 nan nan nan
261 266 274 272 260 260 261 266 271 272 269 271 275 276 270 263 261 259 262 264 263 272 282 284 292 293 292 281 271 261 266 268 266 nan nan nan nan nan nan nan nan nan nan nan nan nan nan nan nan nan nan nan nan nan nan nan nan nan nan 308 nan 309 309 nan nan nan nan nan nan nan nan nan nan nan nan nan nan nan nan nan nan nan nan nan 331
266 260 266 268 262 256 256 259 263 265 266 269 276 275 275 275 272 274 277 277 285 290 294 298 296 293 289 276 253 252 nan nan nan nan nan nan nan nan nan nan nan nan nan nan nan nan nan nan nan nan nan nan nan nan nan nan nan nan nan nan nan nan nan nan nan nan nan nan nan nan nan nan nan nan nan 308 307 307 nan nan nan nan nan nan 326
267 262 256 261 264 261 258 258 264 263 260 261 265 267 270 271 276 280 283 290 291 285 284 288 292 291 282 265 259 258 nan nan nan nan nan nan nan nan nan nan nan nan nan nan nan nan nan nan nan nan nan nan nan nan nan nan nan nan nan nan nan nan nan nan nan nan nan nan nan nan nan nan nan nan nan nan nan nan nan nan nan nan nan nan nan
269 264 257 258 270 269 262 259 257 259 254 255 259 267 277 274 273 272 276 282 287 289 289 290 284 279 271 267 266 nan nan nan nan nan nan nan nan nan nan nan nan nan nan nan nan nan nan nan nan nan nan nan nan nan nan nan nan nan nan nan nan nan nan nan nan nan nan nan nan nan nan nan nan nan nan nan nan nan nan nan nan nan nan nan nan
271 269 263 260 263 262 259 255 259 261 257 256 264 270 274 277 274 274 273 270 279 285 284 279 278 273 269 269 269 nan nan nan nan nan nan nan nan nan nan nan nan nan nan nan nan nan nan nan nan nan nan nan nan nan nan nan nan nan nan nan nan nan nan nan nan nan nan nan nan nan nan nan nan nan nan nan nan nan nan nan nan nan nan nan nan
264 265 262 258 258 254 254 258 263 263 262 261 268 270 270 271 272 274 280 282 280 275 274 281 282 271 268 268 nan nan nan nan nan nan nan nan nan nan nan nan nan nan nan nan nan nan nan nan nan nan nan nan nan nan nan nan nan nan nan nan nan nan nan nan nan nan nan nan nan nan nan nan nan nan nan nan nan nan nan nan nan nan nan nan nan
256 262 262 260 258 254 254 262 265 260 262 267 271 272 269 268 273 278 285 288 280 276 278 284 274 254 267 nan nan nan nan nan nan nan nan nan nan nan nan nan nan nan nan nan nan nan nan nan nan nan nan nan nan nan nan nan nan nan nan nan nan nan nan nan nan nan nan nan nan nan nan nan nan nan nan nan nan nan nan nan nan nan nan nan nan